Time,TemperatureF,DewpointF,PressureIn,WindDirection,WindDirectionDegrees,WindSpeedMPH,WindSpeedGustMPH,Humidity,HourlyPrecipIn,Conditions,Clouds,dailyrainin,SoftwareType,DateUTC
2013-10-15 00:01:00,50.5,38.9,29.23,East,90,0.0,2.0,64,0.00,,,0.00,WUHU216WMR100,2013-10-15 04:01:00,
2013-10-15 00:02:00,50.5,38.5,29.23,East,90,0.0,2.0,63,0.00,,,0.00,WUHU216WMR100,2013-10-15 04:02:00,
2013-10-15 00:07:00,50.2,38.2,29.21,East,90,0.0,1.3,63,0.00,,,0.00,WUHU216WMR100,2013-10-15 04:07:00,
2013-10-15 00:12:00,50.2,39.0,29.21,East,90,0.0,0.0,65,0.00,,,0.00,WUHU216WMR100,2013-10-15 04:12:00,
2013-10-15 00:17:00,49.8,38.6,29.21,East,90,0.0,0.0,65,0.00,,,0.00,WUHU216WMR100,2013-10-15 04:17:00,
2013-10-15 00:22:00,49.8,39.4,29.23,East,90,0.0,0.0,67,0.00,,,0.00,WUHU216WMR100,2013-10-15 04:22:00,
2013-10-15 00:27:00,49.6,39.2,29.23,East,90,0.0,0.0,67,0.00,,,0.00,WUHU216WMR100,2013-10-15 04:27:00,
2013-10-15 00:32:00,49.3,39.3,29.23,East,90,0.0,0.0,68,0.00,,,0.00,WUHU216WMR100,2013-10-15 04:32:00,
2013-10-15 00:37:00,48.9,38.9,29.21,East,90,0.0,0.0,68,0.00,,,0.00,WUHU216WMR100,2013-10-15 04:37:00,
2013-10-15 00:42:00,48.9,39.3,29.21,East,90,0.0,0.0,69,0.00,,,0.00,WUHU216WMR100,2013-10-15 04:42:00,
2013-10-15 00:47:00,48.9,39.6,29.21,East,90,0.0,0.0,70,0.00,,,0.00,WUHU216WMR100,2013-10-15 04:47:00,
2013-10-15 00:52:00,48.7,39.1,29.21,East,90,0.0,0.0,69,0.00,,,0.00,WUHU216WMR100,2013-10-15 04:52:00,
2013-10-15 00:57:00,48.7,39.5,29.21,East,90,0.0,0.0,70,0.00,,,0.00,WUHU216WMR100,2013-10-15 04:57:00,
2013-10-15 01:02:00,48.6,39.4,29.21,East,90,0.0,0.0,70,0.00,,,0.00,WUHU216WMR100,2013-10-15 05:02:00,
2013-10-15 01:07:00,48.4,39.2,29.21,East,90,0.0,0.0,70,0.00,,,0.00,WUHU216WMR100,2013-10-15 05:07:00,
2013-10-15 01:12:00,48.2,39.3,29.21,East,90,0.0,0.0,71,0.00,,,0.00,WUHU216WMR100,2013-10-15 05:12:00,
2013-10-15 01:17:00,48.0,39.5,29.21,East,90,0.0,0.0,72,0.00,,,0.00,WUHU216WMR100,2013-10-15 05:17:00,
2013-10-15 01:22:00,47.8,38.9,29.21,East,90,0.0,0.0,71,0.00,,,0.00,WUHU216WMR100,2013-10-15 05:22:00,
2013-10-15 01:27:00,47.8,39.6,29.21,East,90,0.0,0.0,73,0.00,,,0.00,WUHU216WMR100,2013-10-15 05:27:00,
2013-10-15 01:32:00,47.7,39.6,29.21,East,90,0.0,0.0,73,0.00,,,0.00,WUHU216WMR100,2013-10-15 05:32:00,
2013-10-15 01:37:00,47.5,39.4,29.21,East,90,0.0,0.0,73,0.00,,,0.00,WUHU216WMR100,2013-10-15 05:37:00,
2013-10-15 01:42:00,47.7,39.9,29.21,ENE,67,1.2,2.0,74,0.00,,,0.00,WUHU216WMR100,2013-10-15 05:42:00,
2013-10-15 01:47:00,47.7,40.2,29.18,ENE,67,0.0,2.0,75,0.00,,,0.00,WUHU216WMR100,2013-10-15 05:47:00,
2013-10-15 01:52:00,47.5,40.0,29.18,ENE,67,0.0,1.1,75,0.00,,,0.00,WUHU216WMR100,2013-10-15 05:52:00,
2013-10-15 01:57:00,47.5,40.0,29.18,ENE,67,0.0,0.0,75,0.00,,,0.00,WUHU216WMR100,2013-10-15 05:57:00,
2013-10-15 02:02:00,47.3,39.8,29.21,ENE,67,0.0,0.0,75,0.00,,,0.00,WUHU216WMR100,2013-10-15 06:02:00,
2013-10-15 02:07:00,47.3,39.8,29.21,ENE,67,0.0,0.0,75,0.00,,,0.00,WUHU216WMR100,2013-10-15 06:07:00,
2013-10-15 02:12:00,47.1,40.0,29.21,ENE,67,0.0,0.0,76,0.00,,,0.00,WUHU216WMR100,2013-10-15 06:12:00,
2013-10-15 02:17:00,46.9,40.1,29.18,ENE,67,0.0,0.0,77,0.00,,,0.00,WUHU216WMR100,2013-10-15 06:17:00,
2013-10-15 02:22:00,46.9,39.8,29.18,ENE,67,0.0,0.0,76,0.00,,,0.00,WUHU216WMR100,2013-10-15 06:22:00,
2013-10-15 02:27:00,47.1,40.6,29.18,ENE,67,0.0,0.0,78,0.00,,,0.00,WUHU216WMR100,2013-10-15 06:27:00,
2013-10-15 02:32:00,46.8,40.3,29.18,ENE,67,0.0,0.0,78,0.00,,,0.00,WUHU216WMR100,2013-10-15 06:32:00,
2013-10-15 02:37:00,46.6,39.8,29.18,ENE,67,0.0,0.0,77,0.00,,,0.00,WUHU216WMR100,2013-10-15 06:37:00,
2013-10-15 02:42:00,46.6,40.2,29.18,ENE,67,0.0,0.0,78,0.00,,,0.00,WUHU216WMR100,2013-10-15 06:42:00,
2013-10-15 02:47:00,46.6,40.2,29.18,ENE,67,0.0,0.0,78,0.00,,,0.00,WUHU216WMR100,2013-10-15 06:47:00,
2013-10-15 02:52:00,46.8,40.7,29.18,ENE,67,0.0,0.0,79,0.00,,,0.00,WUHU216WMR100,2013-10-15 06:52:00,
2013-10-15 02:57:00,47.1,41.0,29.18,ENE,67,0.0,0.0,79,0.00,,,0.00,WUHU216WMR100,2013-10-15 06:57:00,
2013-10-15 03:02:00,47.7,42.2,29.18,ENE,67,1.6,2.0,81,0.00,,,0.00,WUHU216WMR100,2013-10-15 07:02:00,
2013-10-15 03:07:00,47.7,41.9,29.18,NNW,337,1.3,2.5,80,0.00,,,0.00,WUHU216WMR100,2013-10-15 07:07:00,
2013-10-15 03:13:00,48.0,42.2,29.18,North,0,1.3,2.5,80,0.00,,,0.00,WUHU216WMR100,2013-10-15 07:13:00,
2013-10-15 03:18:00,48.2,42.7,29.15,North,357,1.4,2.7,81,0.00,,,0.00,WUHU216WMR100,2013-10-15 07:18:00,
2013-10-15 03:23:00,48.6,43.4,29.15,NNW,340,1.3,2.7,82,0.00,,,0.00,WUHU216WMR100,2013-10-15 07:23:00,
2013-10-15 03:28:00,48.7,43.5,29.15,NW,320,2.2,3.1,82,0.00,,,0.00,WUHU216WMR100,2013-10-15 07:28:00,
2013-10-15 03:33:00,48.7,43.5,29.15,North,0,1.6,3.1,82,0.00,,,0.00,WUHU216WMR100,2013-10-15 07:33:00,
2013-10-15 03:38:00,48.9,43.7,29.15,NNW,337,2.0,2.7,82,0.00,,,0.00,WUHU216WMR100,2013-10-15 07:38:00,
2013-10-15 03:43:00,49.1,43.9,29.15,North,0,1.1,2.7,82,0.00,,,0.00,WUHU216WMR100,2013-10-15 07:43:00,
2013-10-15 03:48:00,49.3,44.1,29.15,NNW,334,1.5,2.7,82,0.00,,,0.00,WUHU216WMR100,2013-10-15 07:48:00,
2013-10-15 03:53:00,49.5,44.6,29.15,WNW,292,2.0,2.9,83,0.00,,,0.00,WUHU216WMR100,2013-10-15 07:53:00,
2013-10-15 03:58:00,49.5,44.6,29.15,NNW,327,2.3,3.4,83,0.00,,,0.00,WUHU216WMR100,2013-10-15 07:58:00,
2013-10-15 04:03:00,49.6,44.7,29.15,North,0,1.6,3.4,83,0.00,,,0.00,WUHU216WMR100,2013-10-15 08:03:00,
2013-10-15 04:08:00,49.8,44.9,29.15,NNW,337,2.2,3.6,83,0.00,,,0.00,WUHU216WMR100,2013-10-15 08:08:00,
2013-10-15 04:13:00,49.8,44.9,29.15,North,0,1.6,3.6,83,0.00,,,0.00,WUHU216WMR100,2013-10-15 08:13:00,
2013-10-15 04:18:00,50.0,44.7,29.15,NW,324,1.2,3.4,82,0.00,,,0.00,WUHU216WMR100,2013-10-15 08:18:00,
2013-10-15 04:23:00,50.0,45.0,29.15,NNW,337,2.5,3.4,83,0.00,,,0.00,WUHU216WMR100,2013-10-15 08:23:00,
2013-10-15 04:28:00,50.0,45.0,29.15,NNW,334,2.2,3.6,83,0.00,,,0.00,WUHU216WMR100,2013-10-15 08:28:00,
2013-10-15 04:33:00,50.0,45.0,29.15,North,0,2.2,3.6,83,0.00,,,0.00,WUHU216WMR100,2013-10-15 08:33:00,
2013-10-15 04:38:00,50.2,45.2,29.15,NNW,347,1.2,3.1,83,0.00,,,0.00,WUHU216WMR100,2013-10-15 08:38:00,
2013-10-15 04:43:00,50.2,45.2,29.15,North,0,1.6,3.1,83,0.00,,,0.00,WUHU216WMR100,2013-10-15 08:43:00,
2013-10-15 04:48:00,50.2,45.6,29.18,NW,315,1.3,3.4,84,0.00,,,0.00,WUHU216WMR100,2013-10-15 08:48:00,
2013-10-15 04:50:00,50.2,45.6,29.18,NNW,337,1.3,3.4,84,0.00,,,0.00,WUHU216WMR100,2013-10-15 08:50:00,
2013-10-15 04:55:00,50.4,45.7,29.18,NNW,341,1.7,3.1,84,0.00,,,0.00,WUHU216WMR100,2013-10-15 08:55:00,
2013-10-15 05:00:00,50.4,45.7,29.18,WNW,292,0.0,2.9,84,0.00,,,0.00,WUHU216WMR100,2013-10-15 09:00:00,
2013-10-15 05:05:00,50.5,45.8,29.15,NNW,337,0.0,1.6,84,0.00,,,0.00,WUHU216WMR100,2013-10-15 09:05:00,
2013-10-15 05:10:00,50.7,46.0,29.15,North,0,0.0,0.0,84,0.00,,,0.00,WUHU216WMR100,2013-10-15 09:10:00,
2013-10-15 05:15:00,50.7,46.0,29.15,North,0,0.0,0.0,84,0.00,,,0.00,WUHU216WMR100,2013-10-15 09:15:00,
2013-10-15 05:20:00,50.9,46.2,29.15,NNW,337,0.0,0.0,84,0.00,,,0.00,WUHU216WMR100,2013-10-15 09:20:00,
2013-10-15 05:25:00,51.1,46.4,29.15,North,0,0.0,0.0,84,0.00,,,0.00,WUHU216WMR100,2013-10-15 09:25:00,
2013-10-15 05:30:00,51.3,46.6,29.15,North,0,0.0,0.0,84,0.00,,,0.00,WUHU216WMR100,2013-10-15 09:30:00,
2013-10-15 05:35:00,51.3,46.6,29.15,North,0,0.0,0.0,84,0.00,,,0.00,WUHU216WMR100,2013-10-15 09:35:00,
2013-10-15 05:40:00,51.4,46.7,29.15,North,0,0.0,0.0,84,0.00,,,0.00,WUHU216WMR100,2013-10-15 09:40:00,
2013-10-15 05:45:00,51.6,46.9,29.15,North,0,0.0,0.0,84,0.00,,,0.00,WUHU216WMR100,2013-10-15 09:45:00,
2013-10-15 05:50:00,51.6,46.6,29.15,NNW,337,0.0,0.0,83,0.00,,,0.00,WUHU216WMR100,2013-10-15 09:50:00,
2013-10-15 05:55:00,51.6,46.6,29.15,NW,315,0.0,0.0,83,0.00,,,0.00,WUHU216WMR100,2013-10-15 09:55:00,
2013-10-15 06:00:00,51.6,46.6,29.15,North,0,0.0,0.0,83,0.00,,,0.00,WUHU216WMR100,2013-10-15 10:00:00,
2013-10-15 06:05:00,51.8,46.8,29.15,North,0,0.0,0.0,83,0.00,,,0.00,WUHU216WMR100,2013-10-15 10:05:00,
2013-10-15 06:10:00,52.0,47.0,29.15,North,0,0.0,0.0,83,0.00,,,0.00,WUHU216WMR100,2013-10-15 10:10:00,
2013-10-15 06:15:00,52.0,47.0,29.15,North,0,0.0,0.0,83,0.00,,,0.00,WUHU216WMR100,2013-10-15 10:15:00,
2013-10-15 06:20:00,52.2,46.9,29.15,North,0,0.0,0.0,82,0.00,,,0.00,WUHU216WMR100,2013-10-15 10:20:00,
2013-10-15 06:25:00,52.2,46.9,29.15,North,0,0.0,0.0,82,0.00,,,0.00,WUHU216WMR100,2013-10-15 10:25:00,
2013-10-15 06:30:00,52.3,47.0,29.15,North,0,0.0,0.0,82,0.00,,,0.00,WUHU216WMR100,2013-10-15 10:30:00,
2013-10-15 06:35:00,52.3,47.0,29.15,NNE,22,0.0,0.0,82,0.00,,,0.00,WUHU216WMR100,2013-10-15 10:35:00,
2013-10-15 06:40:00,52.5,47.2,29.15,NNE,22,0.0,0.0,82,0.00,,,0.00,WUHU216WMR100,2013-10-15 10:40:00,
2013-10-15 06:45:00,52.7,47.4,29.15,NNE,22,0.0,0.0,82,0.00,,,0.00,WUHU216WMR100,2013-10-15 10:45:00,
2013-10-15 06:50:00,52.9,47.6,29.15,NNE,22,0.0,2.0,82,0.00,,,0.00,WUHU216WMR100,2013-10-15 10:50:00,
2013-10-15 06:55:00,53.1,47.8,29.15,East,90,1.6,2.2,82,0.00,,,0.00,WUHU216WMR100,2013-10-15 10:55:00,
2013-10-15 07:00:00,53.1,47.8,29.15,East,90,0.0,2.2,82,0.00,,,0.00,WUHU216WMR100,2013-10-15 11:00:00,
2013-10-15 07:05:00,53.2,47.9,29.15,East,90,0.0,2.0,82,0.00,,,0.00,WUHU216WMR100,2013-10-15 11:05:00,
2013-10-15 07:10:00,53.2,47.9,29.15,East,90,0.0,1.1,82,0.00,,,0.00,WUHU216WMR100,2013-10-15 11:10:00,
2013-10-15 07:15:00,53.4,48.1,29.15,East,90,0.0,0.9,82,0.00,,,0.00,WUHU216WMR100,2013-10-15 11:15:00,
2013-10-15 07:20:00,53.4,48.1,29.15,East,90,0.0,1.1,82,0.00,,,0.00,WUHU216WMR100,2013-10-15 11:20:00,
2013-10-15 07:25:00,53.4,48.1,29.15,East,90,0.5,1.3,82,0.00,,,0.00,WUHU216WMR100,2013-10-15 11:25:00,
2013-10-15 07:30:00,53.6,48.3,29.15,East,90,0.9,1.3,82,0.00,,,0.00,WUHU216WMR100,2013-10-15 11:30:00,
2013-10-15 07:35:00,53.6,48.3,29.15,East,90,0.0,1.3,82,0.00,,,0.00,WUHU216WMR100,2013-10-15 11:35:00,
2013-10-15 07:40:00,53.8,48.8,29.15,East,90,0.0,0.9,83,0.00,,,0.00,WUHU216WMR100,2013-10-15 11:40:00,
2013-10-15 07:45:00,53.8,48.8,29.15,ENE,67,1.3,2.7,83,0.00,,,0.00,WUHU216WMR100,2013-10-15 11:45:00,
2013-10-15 07:50:00,53.8,48.8,29.15,East,90,2.7,3.4,83,0.00,,,0.00,WUHU216WMR100,2013-10-15 11:50:00,
2013-10-15 07:55:00,53.8,48.8,29.15,ESE,102,1.9,3.4,83,0.00,,,0.00,WUHU216WMR100,2013-10-15 11:55:00,
2013-10-15 08:00:00,54.0,49.3,29.15,East,90,0.0,2.9,84,0.00,,,0.00,WUHU216WMR100,2013-10-15 12:00:00,
2013-10-15 08:05:00,54.1,49.4,29.15,East,90,1.1,1.6,84,0.00,,,0.00,WUHU216WMR100,2013-10-15 12:05:00,
2013-10-15 08:10:00,54.1,49.4,29.15,East,90,0.0,1.6,84,0.00,,,0.00,WUHU216WMR100,2013-10-15 12:10:00,
2013-10-15 08:15:00,54.3,49.6,29.15,East,90,1.3,2.5,84,0.00,,,0.00,WUHU216WMR100,2013-10-15 12:15:00,
2013-10-15 08:20:00,54.5,49.8,29.15,East,90,0.6,3.1,84,0.00,,,0.00,WUHU216WMR100,2013-10-15 12:20:00,
2013-10-15 08:25:00,54.5,49.8,29.15,East,90,0.5,3.1,84,0.00,,,0.00,WUHU216WMR100,2013-10-15 12:25:00,
2013-10-15 08:30:00,54.5,50.1,29.15,East,90,0.0,2.0,85,0.00,,,0.00,WUHU216WMR100,2013-10-15 12:30:00,
2013-10-15 08:35:00,54.7,50.3,29.15,East,90,0.0,2.0,85,0.00,,,0.00,WUHU216WMR100,2013-10-15 12:35:00,
2013-10-15 08:40:00,54.9,50.5,29.15,East,90,0.0,1.6,85,0.00,,,0.00,WUHU216WMR100,2013-10-15 12:40:00,
2013-10-15 08:45:00,55.0,50.9,29.15,East,90,0.0,0.0,86,0.00,,,0.00,WUHU216WMR100,2013-10-15 12:45:00,
2013-10-15 08:50:00,55.2,50.8,29.15,East,90,2.5,3.1,85,0.00,,,0.00,WUHU216WMR100,2013-10-15 12:50:00,
2013-10-15 08:55:00,55.6,51.5,29.15,East,90,0.0,3.1,86,0.00,,,0.00,WUHU216WMR100,2013-10-15 12:55:00,
2013-10-15 09:00:00,55.9,51.5,29.15,East,90,0.0,2.5,85,0.00,,,0.00,WUHU216WMR100,2013-10-15 13:00:00,
2013-10-15 09:05:00,56.1,51.7,29.12,East,90,0.0,0.0,85,0.00,,,0.00,WUHU216WMR100,2013-10-15 13:05:00,
2013-10-15 09:10:00,56.1,51.3,29.12,East,90,0.0,0.0,84,0.00,,,0.00,WUHU216WMR100,2013-10-15 13:10:00,
2013-10-15 09:15:00,56.3,51.5,29.12,ESE,112,0.0,0.0,84,0.00,,,0.00,WUHU216WMR100,2013-10-15 13:15:00,
2013-10-15 09:20:00,56.7,52.2,29.12,East,90,0.0,0.0,85,0.00,,,0.00,WUHU216WMR100,2013-10-15 13:20:00,
2013-10-15 09:25:00,56.8,52.3,29.12,East,90,0.0,0.9,85,0.00,,,0.00,WUHU216WMR100,2013-10-15 13:25:00,
2013-10-15 09:30:00,56.8,52.0,29.12,North,0,0.0,2.5,84,0.00,,,0.00,WUHU216WMR100,2013-10-15 13:30:00,
2013-10-15 09:35:00,57.2,52.4,29.12,North,0,0.0,2.5,84,0.00,,,0.00,WUHU216WMR100,2013-10-15 13:35:00,
2013-10-15 09:40:00,57.2,52.4,29.12,ESE,112,0.2,1.6,84,0.00,,,0.00,WUHU216WMR100,2013-10-15 13:40:00,
2013-10-15 09:45:00,57.4,52.3,29.12,East,90,0.0,1.6,83,0.00,,,0.00,WUHU216WMR100,2013-10-15 13:45:00,
2013-10-15 09:50:00,57.4,52.3,29.12,ESE,112,0.1,2.7,83,0.00,,,0.00,WUHU216WMR100,2013-10-15 13:50:00,
2013-10-15 09:55:00,57.6,52.5,29.12,SE,142,1.2,2.7,83,0.00,,,0.00,WUHU216WMR100,2013-10-15 13:55:00,
2013-10-15 10:00:00,57.9,52.8,29.12,SSW,202,1.6,2.5,83,0.00,,,0.00,WUHU216WMR100,2013-10-15 14:00:00,
2013-10-15 10:05:00,58.1,53.0,29.12,NE,45,0.0,2.5,83,0.00,,,0.00,WUHU216WMR100,2013-10-15 14:05:00,
2013-10-15 10:10:00,58.3,52.9,29.12,ENE,67,0.0,1.6,82,0.00,,,0.00,WUHU216WMR100,2013-10-15 14:10:00,
2013-10-15 10:15:00,58.5,53.1,29.12,East,90,2.0,3.1,82,0.00,,,0.00,WUHU216WMR100,2013-10-15 14:15:00,
2013-10-15 10:20:00,58.6,52.8,29.12,ESE,108,1.3,3.6,81,0.00,,,0.00,WUHU216WMR100,2013-10-15 14:20:00,
2013-10-15 10:25:00,58.8,53.0,29.12,East,90,1.1,3.6,81,0.00,,,0.00,WUHU216WMR100,2013-10-15 14:25:00,
2013-10-15 10:30:00,58.8,53.0,29.12,ENE,67,1.3,2.2,81,0.00,,,0.00,WUHU216WMR100,2013-10-15 14:30:00,
2013-10-15 10:35:00,59.2,53.1,29.12,ESE,112,1.6,2.9,80,0.00,,,0.00,WUHU216WMR100,2013-10-15 14:35:00,
2013-10-15 10:40:00,59.2,52.8,29.12,ESE,112,0.6,2.9,79,0.00,,,0.00,WUHU216WMR100,2013-10-15 14:40:00,
2013-10-15 10:45:00,59.2,52.8,29.12,ENE,67,0.7,3.1,79,0.00,,,0.00,WUHU216WMR100,2013-10-15 14:45:00,
2013-10-15 10:50:00,59.5,52.7,29.12,SE,133,1.2,3.1,78,0.00,,,0.00,WUHU216WMR100,2013-10-15 14:50:00,
2013-10-15 10:55:00,59.4,52.6,29.12,SE,138,1.3,2.7,78,0.00,,,0.00,WUHU216WMR100,2013-10-15 14:55:00,
2013-10-15 11:00:00,59.4,52.6,29.12,NNW,337,1.1,2.5,78,0.00,,,0.00,WUHU216WMR100,2013-10-15 15:00:00,
2013-10-15 11:05:00,59.7,52.6,29.12,NNE,22,0.0,2.7,77,0.00,,,0.00,WUHU216WMR100,2013-10-15 15:05:00,
2013-10-15 11:10:00,59.7,52.6,29.12,NNE,22,0.9,2.7,77,0.00,,,0.00,WUHU216WMR100,2013-10-15 15:10:00,
2013-10-15 11:15:00,59.9,52.8,29.12,NNE,22,0.9,2.7,77,0.00,,,0.00,WUHU216WMR100,2013-10-15 15:15:00,
2013-10-15 11:20:00,60.1,52.6,29.09,SSE,151,1.2,3.1,76,0.00,,,0.00,WUHU216WMR100,2013-10-15 15:20:00,
2013-10-15 11:25:00,60.4,52.9,29.09,East,90,0.0,3.1,76,0.00,,,0.00,WUHU216WMR100,2013-10-15 15:25:00,
2013-10-15 11:30:00,60.6,53.1,29.09,East,90,0.0,2.0,76,0.00,,,0.00,WUHU216WMR100,2013-10-15 15:30:00,
2013-10-15 11:35:00,60.8,52.9,29.12,ESE,112,0.0,2.5,75,0.00,,,0.00,WUHU216WMR100,2013-10-15 15:35:00,
2013-10-15 11:40:00,60.4,52.5,29.12,East,99,0.9,4.0,75,0.00,,,0.00,WUHU216WMR100,2013-10-15 15:40:00,
2013-10-15 11:45:00,60.8,52.9,29.12,SSE,157,0.9,4.0,75,0.00,,,0.00,WUHU216WMR100,2013-10-15 15:45:00,
2013-10-15 11:50:00,61.0,53.1,29.09,East,90,0.6,2.2,75,0.00,,,0.00,WUHU216WMR100,2013-10-15 15:50:00,
2013-10-15 11:55:00,61.5,53.3,29.09,NNE,22,0.0,2.5,74,0.00,,,0.00,WUHU216WMR100,2013-10-15 15:55:00,
2013-10-15 12:00:00,61.7,53.1,29.09,SSE,157,1.6,2.7,73,0.00,,,0.00,WUHU216WMR100,2013-10-15 16:00:00,
2013-10-15 12:05:00,62.1,53.1,29.09,ESE,112,0.6,2.7,72,0.00,,,0.00,WUHU216WMR100,2013-10-15 16:05:00,
2013-10-15 12:10:00,62.6,53.6,29.09,East,98,1.4,2.5,72,0.00,,,0.00,WUHU216WMR100,2013-10-15 16:10:00,
2013-10-15 12:15:00,62.6,53.2,29.09,NE,45,0.0,2.9,71,0.00,,,0.00,WUHU216WMR100,2013-10-15 16:15:00,
2013-10-15 12:20:00,63.1,53.7,29.09,NNE,22,0.9,2.9,71,0.00,,,0.00,WUHU216WMR100,2013-10-15 16:20:00,
2013-10-15 12:25:00,63.0,53.2,29.09,SE,146,2.0,3.4,70,0.00,,,0.00,WUHU216WMR100,2013-10-15 16:25:00,
2013-10-15 12:30:00,63.0,52.8,29.09,ESE,112,2.0,3.4,69,0.00,,,0.00,WUHU216WMR100,2013-10-15 16:30:00,
2013-10-15 12:35:00,63.1,53.3,29.09,NNW,337,0.0,2.7,70,0.00,,,0.00,WUHU216WMR100,2013-10-15 16:35:00,
2013-10-15 12:40:00,63.1,52.9,29.09,SSE,157,1.3,3.1,69,0.00,,,0.00,WUHU216WMR100,2013-10-15 16:40:00,
2013-10-15 12:45:00,63.7,53.9,29.09,ESE,103,0.8,3.1,70,0.00,,,0.00,WUHU216WMR100,2013-10-15 16:45:00,
2013-10-15 12:50:00,64.0,53.8,29.09,SE,139,0.7,2.9,69,0.00,,,0.00,WUHU216WMR100,2013-10-15 16:50:00,
2013-10-15 12:55:00,64.0,53.4,29.09,East,90,1.4,2.9,68,0.00,,,0.00,WUHU216WMR100,2013-10-15 16:55:00,
2013-10-15 13:00:00,64.0,53.4,29.09,ENE,67,1.3,2.9,68,0.00,,,0.00,WUHU216WMR100,2013-10-15 17:00:00,
2013-10-15 13:05:00,63.9,52.9,29.09,East,90,2.2,2.5,67,0.00,,,0.00,WUHU216WMR100,2013-10-15 17:05:00,
2013-10-15 13:10:00,64.0,53.4,29.09,ENE,67,1.1,2.7,68,0.00,,,0.00,WUHU216WMR100,2013-10-15 17:10:00,
2013-10-15 13:15:00,64.8,54.2,29.09,ESE,112,0.0,2.7,68,0.00,,,0.00,WUHU216WMR100,2013-10-15 17:15:00,
2013-10-15 13:20:00,65.1,54.4,29.06,ESE,112,0.1,2.0,68,0.00,,,0.00,WUHU216WMR100,2013-10-15 17:20:00,
2013-10-15 13:25:00,65.1,54.0,29.06,ESE,112,0.0,1.6,67,0.00,,,0.00,WUHU216WMR100,2013-10-15 17:25:00,
2013-10-15 13:30:00,65.1,54.0,29.06,NNW,337,1.3,3.1,67,0.00,,,0.00,WUHU216WMR100,2013-10-15 17:30:00,
2013-10-15 13:35:00,65.1,54.0,29.06,SE,124,1.2,3.1,67,0.00,,,0.00,WUHU216WMR100,2013-10-15 17:35:00,
2013-10-15 13:40:00,65.3,54.2,29.06,SSE,157,0.9,2.9,67,0.00,,,0.00,WUHU216WMR100,2013-10-15 17:40:00,
2013-10-15 13:45:00,65.3,54.6,29.06,SSE,151,1.3,2.9,68,0.00,,,0.00,WUHU216WMR100,2013-10-15 17:45:00,
2013-10-15 13:50:00,65.1,54.0,29.06,SSW,202,3.1,3.4,67,0.00,,,0.00,WUHU216WMR100,2013-10-15 17:50:00,
2013-10-15 13:55:00,65.5,54.8,29.06,East,90,0.1,3.4,68,0.00,,,0.00,WUHU216WMR100,2013-10-15 17:55:00,
2013-10-15 14:00:00,66.0,55.3,29.06,ESE,113,1.6,3.4,68,0.00,,,0.00,WUHU216WMR100,2013-10-15 18:00:00,
2013-10-15 14:05:00,66.0,54.9,29.06,SSW,202,1.6,3.4,67,0.00,,,0.00,WUHU216WMR100,2013-10-15 18:05:00,
2013-10-15 14:10:00,66.4,54.9,29.06,SW,221,1.5,3.4,66,0.00,,,0.00,WUHU216WMR100,2013-10-15 18:10:00,
2013-10-15 14:15:00,66.6,54.6,29.06,ESE,112,2.0,2.9,65,0.00,,,0.00,WUHU216WMR100,2013-10-15 18:15:00,
2013-10-15 14:20:00,67.1,55.1,29.06,SE,135,1.3,2.9,65,0.00,,,0.00,WUHU216WMR100,2013-10-15 18:20:00,
2013-10-15 14:25:00,67.6,55.2,29.06,ENE,67,1.1,2.9,64,0.00,,,0.00,WUHU216WMR100,2013-10-15 18:25:00,
2013-10-15 14:30:00,67.6,54.7,29.06,ESE,120,0.9,3.4,63,0.00,,,0.00,WUHU216WMR100,2013-10-15 18:30:00,
2013-10-15 14:35:00,67.6,54.3,29.03,ESE,112,1.6,3.4,62,0.00,,,0.00,WUHU216WMR100,2013-10-15 18:35:00,
2013-10-15 14:40:00,67.8,54.5,29.03,East,90,1.2,2.7,62,0.00,,,0.00,WUHU216WMR100,2013-10-15 18:40:00,
2013-10-15 14:45:00,67.8,54.5,29.03,SSE,157,2.0,2.5,62,0.00,,,0.00,WUHU216WMR100,2013-10-15 18:45:00,
2013-10-15 14:50:00,68.0,54.2,29.03,ENE,67,2.2,3.1,61,0.00,,,0.00,WUHU216WMR100,2013-10-15 18:50:00,
2013-10-15 14:55:00,68.2,54.4,29.03,SE,135,1.6,3.1,61,0.00,,,0.00,WUHU216WMR100,2013-10-15 18:55:00,
2013-10-15 15:00:00,68.0,54.2,29.03,SE,142,3.0,5.6,61,0.00,,,0.00,WUHU216WMR100,2013-10-15 19:00:00,
2013-10-15 15:05:00,68.4,54.6,29.03,ESE,112,0.6,5.6,61,0.00,,,0.00,WUHU216WMR100,2013-10-15 19:05:00,
2013-10-15 15:10:00,68.7,54.9,29.03,NE,45,1.6,2.2,61,0.00,,,0.00,WUHU216WMR100,2013-10-15 19:10:00,
2013-10-15 15:15:00,68.5,54.7,29.03,South,177,1.5,3.1,61,0.00,,,0.00,WUHU216WMR100,2013-10-15 19:15:00,
2013-10-15 15:20:00,68.7,54.9,29.03,ESE,112,0.9,3.1,61,0.00,,,0.00,WUHU216WMR100,2013-10-15 19:20:00,
2013-10-15 15:25:00,68.7,54.4,29.03,ESE,112,0.9,2.2,60,0.00,,,0.00,WUHU216WMR100,2013-10-15 19:25:00,
2013-10-15 15:30:00,68.7,54.4,29.03,ESE,112,0.3,2.9,60,0.00,,,0.00,WUHU216WMR100,2013-10-15 19:30:00,
2013-10-15 15:35:00,68.9,54.6,29.03,South,180,1.1,2.9,60,0.00,,,0.00,WUHU216WMR100,2013-10-15 19:35:00,
2013-10-15 15:40:00,69.1,54.3,29.03,ESE,115,1.5,3.1,59,0.00,,,0.00,WUHU216WMR100,2013-10-15 19:40:00,
2013-10-15 15:46:00,69.4,54.6,29.03,East,90,0.8,3.1,59,0.00,,,0.00,WUHU216WMR100,2013-10-15 19:46:00,
2013-10-15 15:51:00,70.0,54.2,29.03,NNE,22,0.9,2.2,57,0.00,,,0.00,WUHU216WMR100,2013-10-15 19:51:00,
2013-10-15 15:56:00,70.5,54.7,29.03,East,94,1.5,2.7,57,0.00,,,0.00,WUHU216WMR100,2013-10-15 19:56:00,
2013-10-15 16:01:00,70.7,54.4,29.03,East,90,1.6,2.7,56,0.00,,,0.00,WUHU216WMR100,2013-10-15 20:01:00,
2013-10-15 16:06:00,70.7,53.9,29.03,WNW,292,1.1,2.5,55,0.00,,,0.00,WUHU216WMR100,2013-10-15 20:06:00,
2013-10-15 16:11:00,71.1,54.2,29.03,SSW,202,2.5,4.3,55,0.00,,,0.00,WUHU216WMR100,2013-10-15 20:11:00,
2013-10-15 16:16:00,71.1,53.7,29.03,ESE,112,1.6,4.3,54,0.00,,,0.00,WUHU216WMR100,2013-10-15 20:16:00,
2013-10-15 16:21:00,70.7,52.3,29.00,WNW,292,2.5,2.7,52,0.00,,,0.00,WUHU216WMR100,2013-10-15 20:21:00,
2013-10-15 16:26:00,70.9,53.0,29.00,SSE,157,2.0,3.8,53,0.00,,,0.00,WUHU216WMR100,2013-10-15 20:26:00,
2013-10-15 16:31:00,70.9,53.0,29.00,ESE,112,1.1,3.8,53,0.00,,,0.00,WUHU216WMR100,2013-10-15 20:31:00,
2013-10-15 16:36:00,71.1,53.2,29.00,ENE,67,0.4,3.8,53,0.00,,,0.00,WUHU216WMR100,2013-10-15 20:36:00,
2013-10-15 16:41:00,70.7,52.8,29.00,ESE,112,0.4,2.5,53,0.00,,,0.00,WUHU216WMR100,2013-10-15 20:41:00,
2013-10-15 16:46:00,70.5,52.7,29.00,East,97,2.5,3.8,53,0.00,,,0.00,WUHU216WMR100,2013-10-15 20:46:00,
2013-10-15 16:51:00,70.3,53.0,29.00,ENE,67,1.1,3.8,54,0.00,,,0.00,WUHU216WMR100,2013-10-15 20:51:00,
2013-10-15 16:56:00,70.2,52.9,29.00,SE,135,0.0,3.6,54,0.00,,,0.00,WUHU216WMR100,2013-10-15 20:56:00,
2013-10-15 17:01:00,70.2,53.4,29.00,ENE,67,1.1,3.6,55,0.00,,,0.00,WUHU216WMR100,2013-10-15 21:01:00,
2013-10-15 17:06:00,70.0,53.7,29.00,ENE,67,0.0,2.0,56,0.00,,,0.00,WUHU216WMR100,2013-10-15 21:06:00,
2013-10-15 17:11:00,70.0,53.7,29.00,ENE,67,0.0,1.3,56,0.00,,,0.00,WUHU216WMR100,2013-10-15 21:11:00,
2013-10-15 17:16:00,69.8,53.5,29.00,ENE,67,1.0,1.6,56,0.00,,,0.00,WUHU216WMR100,2013-10-15 21:16:00,
2013-10-15 17:21:00,69.4,53.7,29.00,NW,315,0.5,2.0,57,0.00,,,0.00,WUHU216WMR100,2013-10-15 21:21:00,
2013-10-15 17:26:00,69.3,53.6,29.00,NW,315,0.3,2.0,57,0.00,,,0.00,WUHU216WMR100,2013-10-15 21:26:00,
2013-10-15 17:31:00,69.3,53.6,29.00,NW,315,0.0,1.3,57,0.00,,,0.00,WUHU216WMR100,2013-10-15 21:31:00,
2013-10-15 17:36:00,69.1,53.4,29.00,NW,315,0.0,0.0,57,0.00,,,0.00,WUHU216WMR100,2013-10-15 21:36:00,
2013-10-15 17:41:00,68.9,53.7,29.00,NW,315,0.0,1.3,58,0.00,,,0.00,WUHU216WMR100,2013-10-15 21:41:00,
2013-10-15 17:46:00,68.7,53.5,29.00,SSE,157,0.4,1.3,58,0.00,,,0.00,WUHU216WMR100,2013-10-15 21:46:00,
2013-10-15 17:51:00,68.5,53.3,29.00,SSE,157,0.0,1.3,58,0.00,,,0.00,WUHU216WMR100,2013-10-15 21:51:00,
2013-10-15 17:56:00,68.4,53.7,29.00,SSE,157,0.0,0.0,59,0.00,,,0.00,WUHU216WMR100,2013-10-15 21:56:00,
2013-10-15 18:01:00,68.2,53.5,29.00,SE,135,0.4,1.3,59,0.00,,,0.00,WUHU216WMR100,2013-10-15 22:01:00,
2013-10-15 18:06:00,68.0,54.2,29.00,East,90,0.0,2.2,61,0.00,,,0.00,WUHU216WMR100,2013-10-15 22:06:00,
2013-10-15 18:11:00,67.8,54.5,29.00,East,90,0.0,2.2,62,0.00,,,0.00,WUHU216WMR100,2013-10-15 22:11:00,
2013-10-15 18:16:00,67.5,54.6,29.00,East,90,0.0,0.9,63,0.00,,,0.00,WUHU216WMR100,2013-10-15 22:16:00,
2013-10-15 18:21:00,67.3,54.9,29.00,East,90,0.0,1.1,64,0.00,,,0.00,WUHU216WMR100,2013-10-15 22:21:00,
2013-10-15 18:26:00,67.1,54.7,29.00,East,90,0.0,1.1,64,0.00,,,0.00,WUHU216WMR100,2013-10-15 22:26:00,
2013-10-15 18:31:00,66.7,54.7,29.00,East,90,1.1,1.6,65,0.00,,,0.00,WUHU216WMR100,2013-10-15 22:31:00,
2013-10-15 18:36:00,66.6,55.1,29.00,East,90,0.0,1.6,66,0.00,,,0.00,WUHU216WMR100,2013-10-15 22:36:00,
2013-10-15 18:41:00,66.6,55.5,29.00,East,90,1.6,2.2,67,0.00,,,0.00,WUHU216WMR100,2013-10-15 22:41:00,
2013-10-15 18:46:00,66.2,55.5,29.00,East,90,0.0,2.2,68,0.00,,,0.00,WUHU216WMR100,2013-10-15 22:46:00,
2013-10-15 18:51:00,66.2,55.5,29.00,East,90,0.0,1.6,68,0.00,,,0.00,WUHU216WMR100,2013-10-15 22:51:00,
2013-10-15 18:56:00,66.0,55.7,29.00,East,90,0.0,0.0,69,0.00,,,0.00,WUHU216WMR100,2013-10-15 22:56:00,
2013-10-15 19:02:00,66.0,56.1,29.00,East,90,0.0,0.0,70,0.00,,,0.00,WUHU216WMR100,2013-10-15 23:02:00,
2013-10-15 19:07:00,66.0,56.1,28.97,East,90,0.0,0.0,70,0.00,,,0.00,WUHU216WMR100,2013-10-15 23:07:00,
2013-10-15 19:12:00,65.8,56.3,28.97,East,90,0.0,0.0,71,0.00,,,0.00,WUHU216WMR100,2013-10-15 23:12:00,
2013-10-15 19:17:00,65.7,56.2,28.97,East,90,0.0,0.0,71,0.00,,,0.00,WUHU216WMR100,2013-10-15 23:17:00,
2013-10-15 19:22:00,65.3,55.8,28.97,East,90,0.0,0.0,71,0.00,,,0.00,WUHU216WMR100,2013-10-15 23:22:00,
2013-10-15 19:27:00,65.1,56.0,28.97,East,90,0.0,0.0,72,0.00,,,0.00,WUHU216WMR100,2013-10-15 23:27:00,
2013-10-15 19:32:00,64.9,55.8,28.97,East,90,0.0,0.0,72,0.00,,,0.00,WUHU216WMR100,2013-10-15 23:32:00,
2013-10-15 19:37:00,64.8,55.7,28.97,East,90,0.0,0.0,72,0.00,,,0.00,WUHU216WMR100,2013-10-15 23:37:00,
2013-10-15 19:42:00,64.8,56.1,28.97,East,90,0.0,0.0,73,0.00,,,0.00,WUHU216WMR100,2013-10-15 23:42:00,
2013-10-15 19:47:00,64.8,56.1,28.97,East,90,0.0,0.0,73,0.00,,,0.00,WUHU216WMR100,2013-10-15 23:47:00,
2013-10-15 19:52:00,64.8,56.8,28.97,East,90,0.0,0.0,75,0.00,,,0.00,WUHU216WMR100,2013-10-15 23:52:00,
2013-10-15 19:57:00,64.6,56.6,28.97,East,90,0.0,0.0,75,0.00,,,0.00,WUHU216WMR100,2013-10-15 23:57:00,
2013-10-15 20:02:00,64.6,57.0,28.97,East,90,0.0,0.0,76,0.00,,,0.00,WUHU216WMR100,2013-10-16 00:02:00,
2013-10-15 20:07:00,64.4,56.8,28.97,East,90,0.0,0.0,76,0.00,,,0.00,WUHU216WMR100,2013-10-16 00:07:00,
2013-10-15 20:12:00,64.2,56.9,28.97,East,90,0.0,0.0,77,0.00,,,0.00,WUHU216WMR100,2013-10-16 00:12:00,
2013-10-15 20:17:00,64.2,56.9,28.97,East,90,0.0,0.0,77,0.00,,,0.00,WUHU216WMR100,2013-10-16 00:17:00,
2013-10-15 20:22:00,64.0,57.1,28.97,East,90,0.0,0.0,78,0.00,,,0.00,WUHU216WMR100,2013-10-16 00:22:00,
2013-10-15 20:27:00,63.9,57.0,28.97,East,90,0.0,0.0,78,0.00,,,0.00,WUHU216WMR100,2013-10-16 00:27:00,
2013-10-15 20:32:00,63.5,56.6,28.97,East,90,0.0,0.0,78,0.00,,,0.00,WUHU216WMR100,2013-10-16 00:32:00,
2013-10-15 20:37:00,63.3,56.8,28.97,East,90,0.0,0.0,79,0.00,,,0.00,WUHU216WMR100,2013-10-16 00:37:00,
2013-10-15 20:42:00,63.1,56.6,28.97,East,90,0.0,0.0,79,0.00,,,0.00,WUHU216WMR100,2013-10-16 00:42:00,
2013-10-15 20:47:00,62.8,56.3,28.97,East,90,0.0,0.0,79,0.00,,,0.00,WUHU216WMR100,2013-10-16 00:47:00,
2013-10-15 20:52:00,62.6,56.1,28.97,East,90,0.0,0.0,79,0.00,,,0.00,WUHU216WMR100,2013-10-16 00:52:00,
2013-10-15 20:57:00,62.6,56.1,28.97,East,90,0.0,0.0,79,0.00,,,0.00,WUHU216WMR100,2013-10-16 00:57:00,
2013-10-15 21:02:00,62.2,56.3,28.97,East,90,0.0,0.0,81,0.00,,,0.00,WUHU216WMR100,2013-10-16 01:02:00,
2013-10-15 21:07:00,61.9,55.7,28.97,East,90,0.0,0.0,80,0.00,,,0.00,WUHU216WMR100,2013-10-16 01:07:00,
2013-10-15 21:12:00,61.9,56.1,28.97,East,90,0.0,0.0,81,0.00,,,0.00,WUHU216WMR100,2013-10-16 01:12:00,
2013-10-15 21:17:00,61.5,55.7,28.97,East,90,0.0,0.0,81,0.00,,,0.00,WUHU216WMR100,2013-10-16 01:17:00,
2013-10-15 21:22:00,61.3,55.5,28.97,East,90,0.0,0.0,81,0.00,,,0.00,WUHU216WMR100,2013-10-16 01:22:00,
2013-10-15 21:27:00,61.2,55.7,28.97,East,90,0.0,0.0,82,0.00,,,0.00,WUHU216WMR100,2013-10-16 01:27:00,
2013-10-15 21:32:00,61.0,55.5,28.97,East,90,0.0,0.0,82,0.00,,,0.00,WUHU216WMR100,2013-10-16 01:32:00,
2013-10-15 21:37:00,60.8,55.6,28.97,East,90,0.0,0.0,83,0.00,,,0.00,WUHU216WMR100,2013-10-16 01:37:00,
2013-10-15 21:42:00,60.6,55.4,28.97,East,90,0.0,0.0,83,0.00,,,0.00,WUHU216WMR100,2013-10-16 01:42:00,
2013-10-15 21:47:00,60.6,55.4,28.97,East,90,0.0,0.0,83,0.00,,,0.00,WUHU216WMR100,2013-10-16 01:47:00,
2013-10-15 21:52:00,60.4,55.2,28.97,East,90,0.0,0.0,83,0.00,,,0.00,WUHU216WMR100,2013-10-16 01:52:00,
2013-10-15 21:57:00,60.4,55.2,28.97,East,90,0.0,0.0,83,0.00,,,0.00,WUHU216WMR100,2013-10-16 01:57:00,
2013-10-15 22:02:00,60.4,55.2,28.94,East,90,0.0,0.0,83,0.00,,,0.00,WUHU216WMR100,2013-10-16 02:02:00,
2013-10-15 22:07:00,60.4,54.9,28.94,East,90,0.0,0.0,82,0.00,,,0.00,WUHU216WMR100,2013-10-16 02:07:00,
2013-10-15 22:12:00,60.4,54.9,28.94,East,90,0.0,0.0,82,0.00,,,0.00,WUHU216WMR100,2013-10-16 02:12:00,
2013-10-15 22:17:00,60.3,54.5,28.97,East,90,0.0,0.0,81,0.00,,,0.00,WUHU216WMR100,2013-10-16 02:17:00,
2013-10-15 22:22:00,60.4,54.3,28.97,East,90,0.0,0.0,80,0.00,,,0.00,WUHU216WMR100,2013-10-16 02:22:00,
2013-10-15 22:27:00,60.6,54.1,28.97,East,90,0.0,0.0,79,0.00,,,0.00,WUHU216WMR100,2013-10-16 02:27:00,
2013-10-15 22:32:00,60.8,54.0,28.97,East,90,0.0,0.0,78,0.00,,,0.00,WUHU216WMR100,2013-10-16 02:32:00,
2013-10-15 22:37:00,60.8,53.6,28.97,East,90,0.0,0.0,77,0.00,,,0.00,WUHU216WMR100,2013-10-16 02:37:00,
2013-10-15 22:42:00,60.8,53.3,28.97,East,90,0.0,0.0,76,0.00,,,0.00,WUHU216WMR100,2013-10-16 02:42:00,
2013-10-15 22:47:00,61.0,53.5,28.94,East,90,0.0,0.0,76,0.00,,,0.00,WUHU216WMR100,2013-10-16 02:47:00,
2013-10-15 22:52:00,61.0,52.8,28.94,East,90,0.0,0.0,74,0.00,,,0.00,WUHU216WMR100,2013-10-16 02:52:00,
2013-10-15 22:57:00,61.0,52.4,28.94,East,90,0.0,0.0,73,0.00,,,0.00,WUHU216WMR100,2013-10-16 02:57:00,
2013-10-15 23:02:00,61.2,52.2,28.97,East,90,0.0,0.0,72,0.00,,,0.00,WUHU216WMR100,2013-10-16 03:02:00,
2013-10-15 23:08:00,61.2,51.9,28.97,East,90,0.0,0.0,71,0.00,,,0.00,WUHU216WMR100,2013-10-16 03:08:00,
2013-10-15 23:13:00,61.0,51.3,28.97,East,90,0.0,0.0,70,0.00,,,0.00,WUHU216WMR100,2013-10-16 03:13:00,
2013-10-15 23:20:00,61.2,51.5,28.97,East,90,0.0,0.0,70,0.00,,,0.00,WUHU216WMR100,2013-10-16 03:20:00,
2013-10-15 23:25:00,61.0,50.9,28.97,East,90,0.0,0.0,69,0.00,,,0.00,WUHU216WMR100,2013-10-16 03:25:00,
2013-10-15 23:30:00,61.0,50.9,28.97,East,90,0.0,0.0,69,0.00,,,0.00,WUHU216WMR100,2013-10-16 03:30:00,
2013-10-15 23:35:00,61.2,51.1,28.97,South,180,0.6,3.6,69,0.00,,,0.00,WUHU216WMR100,2013-10-16 03:35:00,
2013-10-15 23:40:00,61.7,51.2,28.97,South,185,0.6,3.6,68,0.00,,,0.00,WUHU216WMR100,2013-10-16 03:40:00,
2013-10-15 23:45:00,62.1,51.2,28.97,SE,135,0.9,5.6,67,0.00,,,0.00,WUHU216WMR100,2013-10-16 03:45:00,
2013-10-15 23:50:00,62.2,50.4,28.97,SSE,168,1.6,5.6,65,0.00,,,0.00,WUHU216WMR100,2013-10-16 03:50:00,
2013-10-15 23:55:00,62.6,50.4,28.97,SSW,202,0.0,2.7,64,0.00,,,0.00,WUHU216WMR100,2013-10-16 03:55:00,